Lexington, NE

11:59 PM CST on December 05, 2019 (GMT -0600)
Kelly

Weather History for KLXN - November, 2019

Change the Weather History Date:

Tuesday, November 19, 2019

  Actual Average Record
Temperature  
Mean Temperature 43 °F -  
Max Temperature 61 °F 45 °F 80 °F (2007)
Min Temperature 25 °F 22 °F 12 °F (2014)
Degree Days  
Heating Degree Days 22    
Moisture  
Dew Point 29 °F    
Average Humidity 62    
Maximum Humidity 90    
Minimum Humidity 32    
Precipitation  
Precipitation 0.05 in - - ()
Sea Level Pressure  
Sea Level Pressure 29.84 in    
Wind  
Wind Speed 7 mph (South)    
Max Wind Speed 16 mph    
Max Gust Speed 20 mph    
Visibility 10 miles    
Events      
Averages and records for this station are not official NWS values.
T = Trace of Precipitation, MM = Missing Value Source: NWS Daily Summary

Daily Weather History Graph

Daily Weather History Graph

Search for Another Location

Airport or City:

Astronomy

Nov. 19, 2019 Rise Set
Actual Time 7:30 AM CST 5:18 PM CST
Civil Twilight 7:00 AM CST 5:47 PM CST
Nautical Twilight 6:27 AM CST 6:21 PM CST
Astronomical Twilight 5:54 AM CST 6:53 PM CST
Moon No Moon Rise 1:41 PM CST (11/19)
Length of Visible Light 10h 46m
Length of Day
9h 47m
Waning Gibbous, 51% of the Moon is Illuminated
Nov 19
Waning Gibbous
Nov 19
Last Quarter
Nov 26
New
Dec 4
First Quarter
Dec 11
Full

Hourly Weather History & Observations

Time (CST) Temp. Windchill Dew Point Humidity Pressure Visibility Wind Dir Wind Speed Gust Speed Precip Events Conditions
12:15 AM 31.8 °F 28.5 °F 25.0 °F 76% 29.90 in 10.0 mi NW 3.5 mph - N/A   Clear
12:35 AM 30.7 °F 24.9 °F 24.3 °F 77% 29.90 in 10.0 mi WNW 5.8 mph - N/A   Clear
12:55 AM 29.3 °F 21.5 °F 23.7 °F 80% 29.91 in 10.0 mi WNW 8.1 mph - N/A   Clear
1:15 AM 31.3 °F 23.9 °F 25.5 °F 79% 29.91 in 10.0 mi WNW 8.1 mph - N/A   Clear
1:35 AM 30.2 °F 23.4 °F 25.0 °F 81% 29.91 in 10.0 mi WNW 6.9 mph - N/A   Clear
1:55 AM 29.3 °F 24.3 °F 24.6 °F 83% 29.91 in 10.0 mi NW 4.6 mph - N/A   Clear
2:15 AM 28.6 °F 22.4 °F 23.4 °F 81% 29.91 in 10.0 mi NNW 5.8 mph - N/A   Clear
2:55 AM 27.9 °F 20.6 °F 23.5 °F 84% 29.91 in 10.0 mi West 6.9 mph - N/A   Clear
3:15 AM 28.4 °F 22.2 °F 23.9 °F 83% 29.91 in 10.0 mi West 5.8 mph - N/A   Clear
3:35 AM 28.9 °F 21.9 °F 23.9 °F 81% 29.90 in 10.0 mi WNW 6.9 mph - N/A   Clear
3:55 AM 28.8 °F 23.7 °F 24.4 °F 84% 29.90 in 10.0 mi West 4.6 mph - N/A   Clear
4:15 AM 28.4 °F 23.3 °F 23.9 °F 83% 29.90 in 10.0 mi West 4.6 mph - N/A   Clear
4:35 AM 27.5 °F 22.2 °F 23.9 °F 86% 29.89 in 10.0 mi WNW 4.6 mph - N/A   Clear
4:55 AM 26.8 °F 21.4 °F 23.5 °F 88% 29.90 in 10.0 mi West 4.6 mph - N/A   Clear
5:15 AM 26.4 °F 19.8 °F 23.0 °F 87% 29.90 in 10.0 mi West 5.8 mph - N/A   Clear
5:35 AM 26.1 °F 18.4 °F 23.0 °F 88% 29.90 in 10.0 mi West 6.9 mph - N/A   Clear
5:55 AM 27.3 °F 19.1 °F 24.4 °F 89% 29.90 in 10.0 mi West 8.1 mph - N/A   Clear
6:15 AM 27.5 °F 21.1 °F 23.9 °F 86% 29.90 in 10.0 mi West 5.8 mph - N/A   Clear
6:35 AM 26.6 °F 20.0 °F 23.7 °F 89% 29.90 in 10.0 mi West 5.8 mph - N/A   Clear
6:55 AM 25.5 °F 21.3 °F 23.0 °F 90% 29.91 in 10.0 mi WNW 3.5 mph - N/A   Clear
7:15 AM 25.3 °F 19.7 °F 22.6 °F 89% 29.91 in 10.0 mi West 4.6 mph - N/A   Clear
7:35 AM 25.3 °F 21.1 °F 22.8 °F 90% 29.91 in 10.0 mi WNW 3.5 mph - N/A   Clear
7:55 AM 25.3 °F 21.1 °F 22.8 °F 90% 29.92 in 10.0 mi WNW 3.5 mph - N/A   Clear
8:15 AM 27.3 °F 23.4 °F 24.3 °F 88% 29.92 in 7.0 mi WNW 3.5 mph - N/A   Clear
8:35 AM 30.9 °F - 26.6 °F 84% 29.92 in 10.0 mi Calm Calm - N/A   Clear
8:55 AM 33.4 °F 30.4 °F 28.2 °F 81% 29.92 in 10.0 mi WNW 3.5 mph - N/A   Clear
9:15 AM 35.6 °F 32.8 °F 28.9 °F 77% 29.92 in 10.0 mi WNW 3.5 mph - N/A   Clear
9:35 AM 37.8 °F - 30.2 °F 74% 29.92 in 10.0 mi Calm Calm - N/A   Clear
9:55 AM 40.3 °F - 31.3 °F 70% 29.91 in 10.0 mi Calm Calm - N/A   Clear
10:15 AM 44.8 °F - 33.1 °F 64% 29.91 in 7.0 mi Calm Calm - 0.05 in   Clear
10:35 AM 46.6 °F - 31.8 °F 56% 29.91 in 10.0 mi Calm Calm - 0.05 in   Clear
10:55 AM 50.0 °F - 32.2 °F 50% 29.90 in 10.0 mi ESE 3.5 mph - 0.05 in   Clear
11:15 AM 52.3 °F - 32.4 °F 47% 29.90 in 10.0 mi ESE 6.9 mph - N/A   Clear
11:35 AM 55.2 °F - 32.4 °F 42% 29.89 in 10.0 mi SE 5.8 mph - N/A   Clear
11:55 AM 58.3 °F - 31.5 °F 36% 29.88 in 10.0 mi South 9.2 mph - N/A   Clear
12:15 PM 59.0 °F - 31.1 °F 35% 29.86 in 10.0 mi South 12.7 mph - N/A   Clear
12:35 PM 59.9 °F - 30.4 °F 33% 29.85 in 10.0 mi South 12.7 mph - N/A   Clear
12:55 PM 60.3 °F - 30.2 °F 32% 29.83 in 10.0 mi South 13.8 mph - N/A   Clear
1:15 PM 60.8 °F - 30.9 °F 32% 29.82 in 10.0 mi SSE 15.0 mph - N/A   Clear
1:35 PM 59.5 °F - 31.1 °F 34% 29.81 in 10.0 mi SSE 13.8 mph - N/A   Clear
1:55 PM 59.4 °F - 30.4 °F 33% 29.80 in 10.0 mi SSE 16.1 mph - N/A   Clear
2:15 PM 59.5 °F - 30.9 °F 34% 29.79 in 10.0 mi SSE 15.0 mph - N/A   Clear
2:35 PM 59.0 °F - 31.3 °F 35% 29.79 in 10.0 mi SSE 15.0 mph - N/A   Clear
2:55 PM 59.4 °F - 32.0 °F 36% 29.79 in 10.0 mi SSE 11.5 mph - N/A   Clear
3:15 PM 60.4 °F - 32.0 °F 34% 29.78 in 10.0 mi SSE 10.4 mph - N/A   Clear
3:35 PM 61.0 °F - 32.0 °F 34% 29.78 in 10.0 mi SSE 15.0 mph 19.6 mph N/A   Clear
3:55 PM 59.7 °F - 31.5 °F 34% 29.79 in 10.0 mi SSE 13.8 mph - N/A   Clear
4:15 PM 58.1 °F - 31.8 °F 37% 29.78 in 10.0 mi SSE 10.4 mph - N/A   Clear
4:35 PM 58.3 °F - 32.0 °F 37% 29.78 in 10.0 mi SSE 12.7 mph - N/A   Clear
4:55 PM 57.2 °F - 32.0 °F 38% 29.77 in 10.0 mi SE 13.8 mph - N/A   Clear
5:15 PM 55.4 °F - 32.0 °F 41% 29.77 in 10.0 mi SE 11.5 mph - N/A   Clear
5:35 PM 53.4 °F - 32.0 °F 44% 29.77 in 10.0 mi ESE 9.2 mph - N/A   Clear
5:55 PM 52.2 °F - 32.0 °F 46% 29.77 in 10.0 mi SE 9.2 mph - N/A   Clear
6:15 PM 51.1 °F - 32.0 °F 48% 29.77 in 10.0 mi SE 10.4 mph - N/A   Clear
6:35 PM 50.0 °F - 32.0 °F 50% 29.78 in 10.0 mi SE 10.4 mph - N/A   Clear
6:55 PM 49.1 °F - 32.0 °F 52% 29.78 in 10.0 mi SE 9.2 mph - N/A   Clear
7:15 PM 48.0 °F - 32.0 °F 54% 29.78 in 10.0 mi SE 9.2 mph - N/A   Clear
7:35 PM 47.3 °F - 32.0 °F 55% 29.78 in 10.0 mi SE 9.2 mph - N/A   Clear
7:55 PM 46.9 °F - 32.0 °F 56% 29.78 in 10.0 mi SE 9.2 mph - N/A   Clear
8:15 PM 45.9 °F 41.2 °F 31.8 °F 58% 29.79 in 10.0 mi SE 9.2 mph - N/A   Clear
8:35 PM 45.7 °F 40.6 °F 32.0 °F 59% 29.79 in 10.0 mi SE 10.4 mph - N/A   Clear
8:55 PM 45.7 °F 40.6 °F 31.8 °F 58% 29.78 in 10.0 mi SE 10.4 mph - N/A   Clear
9:15 PM 46.0 °F 41.4 °F 31.8 °F 58% 29.78 in 10.0 mi ESE 9.2 mph - N/A   Clear
9:35 PM 45.9 °F 40.8 °F 31.8 °F 58% 29.78 in 10.0 mi SE 10.4 mph - N/A   Clear
9:55 PM 45.0 °F 40.1 °F 31.8 °F 60% 29.78 in 10.0 mi ESE 9.2 mph - N/A   Clear
10:15 PM 44.6 °F 40.2 °F 31.6 °F 60% 29.78 in 10.0 mi ESE 8.1 mph - N/A   Clear
10:35 PM 43.0 °F 38.8 °F 31.5 °F 64% 29.77 in 10.0 mi East 6.9 mph - N/A   Clear
10:55 PM 42.1 °F 37.7 °F 31.5 °F 66% 29.76 in 10.0 mi East 6.9 mph - N/A   Clear
11:15 PM 41.7 °F 36.7 °F 31.6 °F 67% 29.76 in 10.0 mi ESE 8.1 mph - N/A   Clear
11:35 PM 41.9 °F 36.9 °F 31.6 °F 67% 29.75 in 10.0 mi ESE 8.1 mph - N/A   Clear
11:55 PM 41.4 °F 36.8 °F 31.6 °F 68% 29.75 in 10.0 mi ESE 6.9 mph - N/A   Clear